Regional Weather Roundup
Issued by NWS

Home | Current Version | Previous Version | Text Only | Print | Product List | Glossary Off
Versions: 1 2 3 4 5 6 7 8 9 10 11 12 13 14 15 16 17 18 19 20 21 22 23 24 25 26 27 28 29 30 31 32 33 34 35 36 37 38 39 40 41 42 43 44 45 46 47 48 49 50

000
ASUS45 KABQ 281210
RWRNM
WEATHER ROUNDUP FOR NEW MEXICO
NATIONAL WEATHER SERVICE ALBUQUERQUE NM
500 AM MST WED JAN 28 2015

NOTE: "FAIR" MEANS FEW OR NO CLOUDS BELOW 12,000 FEET AGL WITH NO
       SIGNIFICANT WEATHER OR OBSTRUCTIONS TO VISION.

      THIS PRODUCT IS RELEASED AS TWO VERSIONS.  ONE VERSION NEAR
      THE TOP OF THE HOUR CONTAINING PRELIMINARY DATA FROM ALBUQUERQUE
      AND OTHER STATIONS.  A FINAL VERSION WITH ADDITIONAL DATA IS
      ISSUED ABOUT 10 MINUTES AFTER THE HOUR.

NMZ501-503-504-510>518-281300-
NORTHWEST PLATEAU/NORTHCENTRAL MOUNTAINS

CITY           SKY/WX    TMP DP  RH WIND       PRES   REMARKS
FARMINGTON     CLEAR     31  27  85 E6        30.26S WCI  25
6HR MIN TEMP:  30; 6HR MAX TEMP:  40;

LOS ALAMOS     CLOUDY    45  31  58 W13       30.28S
SANTA FE       CLOUDY    37  31  78 N9        30.24S WCI  30
6HR MIN TEMP:  36; 6HR MAX TEMP:  43;

TAOS           MOCLDY    28  25  86 N6        30.28R WCI  22
ANGEL FIRE     FAIR      37  28  69 SW7G16    30.26R WCI  32

$$
NMZ402-403-502-505>509-281300-
WESTCENTRAL MOUNTAINS/SOUTHWEST MOUNTAINS

CITY           SKY/WX    TMP DP  RH WIND       PRES   REMARKS
GALLUP         CLEAR     28  26  92 E3        30.30S
6HR MIN TEMP:  28; 6HR MAX TEMP:  36;

GRANTS         MOCLDY    31  31  99 W6        30.30F WCI  25
SILVER CITY    PTCLDY    41  32  70 CALM      30.26R

$$
NMZ407-409-411-412-281300-
SOUTHERN DESERTS

CITY           SKY/WX    TMP DP  RH WIND       PRES   REMARKS
LORDSBURG      FAIR      36  34  93 N5        30.23R WCI  32
DEMING         MOCLDY    40  35  83 W5        30.21R
6HR MIN TEMP:  39; 6HR MAX TEMP:  45;

LAS CRUCES     MOCLDY    46  40  81 CALM      30.21S
HOLLOMAN AFB   PTCLDY    42  37  83 SE5       30.17F
ALAMOGORDO     PTCLDY    46  36  66 E8        30.19F
T OR C         CLOUDY    48  34  58 N6        30.21S
6HR MIN TEMP:  43; 6HR MAX TEMP:  48;


$$
NMZ519>523-281300-
CENTRAL VALLEYS/CENTRAL HIGHLANDS

CITY           SKY/WX    TMP DP  RH WIND       PRES   REMARKS
ALBUQUERQUE    CLOUDY    38  30  73 SE3       30.25F
6HR MIN TEMP:  34; 6HR MAX TEMP:  46;

MORIARTY ARPT  FAIR      37  32  79 W6        30.24F WCI  33
6HR MIN TEMP:  32; 6HR MAX TEMP:  40;

CLINES CORNERS PTCLDY    38  32  79 W24       30.18F WCI  27
6HR MIN TEMP:  35; 6HR MAX TEMP:  39;

BELEN          FAIR      32  31  94 NE6       30.25S WCI  27
6HR MIN TEMP:  30; 6HR MAX TEMP:  38;

SOCORRO        FAIR      37  32  83 E3        30.24S
6HR MIN TEMP:  37; 6HR MAX TEMP:  44;


$$
NMZ524>526-539-540-281300-
SOUTHCENTRAL MOUNTAINS

CITY           SKY/WX    TMP DP  RH WIND       PRES   REMARKS
RUIDOSO        PTCLDY    37  32  81 CALM      30.25S

$$
NMZ527>531-281300-
NORTHEAST HIGHLANDS/NORTHEAST PLAINS

CITY           SKY/WX    TMP DP  RH WIND       PRES   REMARKS
LAS VEGAS      CLOUDY    47  26  44 W14       30.14S
6HR MIN TEMP:  37; 6HR MAX TEMP:  47;

RATON          CLOUDY    31  27  85 NE8       30.08S WCI  23
6HR MIN TEMP:  29; 6HR MAX TEMP:  37;

CLAYTON        CLOUDY    42  30  62 W10       30.01R
6HR MIN TEMP:  42; 6HR MAX TEMP:  52;


$$
NMZ532>537-281300-
EASTCENTRAL PLAINS

CITY           SKY/WX    TMP DP  RH WIND       PRES   REMARKS
TUCUMCARI      PTCLDY    46  35  65 W9        30.04R
6HR MIN TEMP:  42; 6HR MAX TEMP:  51;

CANNON AFB     PTCLDY    44  37  75 W16       30.10F
6HR MIN TEMP:  41; 6HR MAX TEMP:  49;

CLOVIS AIRPORT PTCLDY    46  37  71 W16       30.09F

$$
NMZ028-029-538-281300-
SOUTHEAST PLAINS

CITY           SKY/WX    TMP DP  RH WIND       PRES   REMARKS
ROSWELL        PTCLDY    37  34  89 CALM      30.14R
6HR MIN TEMP:  36; 6HR MAX TEMP:  47;

ARTESIA        CLEAR     43  39  87 NW12      30.15S
CARLSBAD       CLEAR     43  36  76 CALM      30.14R
6HR MIN TEMP:  41; 6HR MAX TEMP:  49;

HOBBS          CLEAR     45  39  81 W10       30.14F


$$


USA.gov is the U.S. government's official web portal to all federal, state and local government web resources and services.